Hourly Data Report for June 15, 2021

TORONTO CITY
ONTARIO
Current Station Operator: ECCC - MSC

43°40'00.000" N
79°24'00.000" W
112.50 m
6158355
71508
XTO

Download Data

Hourly Data (June 2021)
Hourly Data Report for June 15, 2021
TIME
LST
Temp Definition
°C
Dew Point Definition
°C
Rel Hum Definition
%
Precip. Amount Definition
mm

Wind Dir Definition
10's deg

Wind Spd Definition
km/h
Visibility Definition
km
Stn Press Definition
kPa
Hmdx Definition


Wind Chill Definition


Weather Definition


00:00 17.6 12.5 72 0.0       99.62     LegendNANA
01:00 17.4 13.2 77 0.0       99.62     LegendNANA
02:00 17.1 13.3 78 0.0       99.61     LegendNANA
03:00 17.1 13.3 78 0.0       99.61     LegendNANA
04:00 17.1 11.9 71 0.0       99.64     LegendNANA
05:00 16.4 10.9 70 0.0       99.66     LegendNANA
06:00 16.5 11.3 71 0.0       99.69     LegendNANA
07:00 16.7 10.2 65 0.0       99.74     LegendNANA
08:00 18.1 9.4 57 0.0       99.77     LegendNANA
09:00 19.1 7.5 47 0.0       99.80     LegendNANA
10:00 19.7 7.0 43 0.0       99.82     LegendNANA
11:00 21.6 7.4 40 0.0       99.85     LegendNANA
12:00 20.5 3.6 33 0.0       99.86     LegendNANA
13:00 22.2 6.2 35 0.0       99.85     LegendNANA
14:00 22.1 5.0 33 0.0       99.87     LegendNANA
15:00 21.7 4.2 32 0.0       99.90     LegendNANA
16:00 21.2 3.2 31 0.0       99.92     LegendNANA
17:00 21.1 2.5 29 0.0       99.94     LegendNANA
18:00 20.6 0.3 26 0.0       99.97     LegendNANA
19:00 19.9 -0.4 26 0.0       100.01     LegendNANA
20:00 19.0 0.1 28 0.0       100.03     LegendNANA
21:00 18.0 1.5 33 0.0       100.08     LegendNANA
22:00 16.7 3.5 41 0.0       100.09     LegendNANA
23:00 15.8 4.2 46 0.0       100.09     LegendNANA

Notes on Data Quality.

Legend

  • E = Estimated
  • M = Missing
  • NA = Not Available*
  • [empty] = Indicates an unobserved value
Date modified: